User: anonymous   Login
Location: Gradaro
(45.0833°N, 10.8833°E)
Time: 16:16:01
(UTC+00:00)
Language:

deb Kosmos-970 - Orbit

View from above orbital plane
View from above orbital plane
View from above satellite
View from above satellite

Ground track
Ground track

The orbit data is extracted from the following two-line orbital elements,

1 13504U 77121BB  21172.69434470 -.00000076  00000-0  22649-5 0  9993
2 13504  66.1165 253.8366 0194723  51.1886 116.2322 13.77085718175566
Epoch (UTC): 21 June 2021 16:39:51
Eccentricity: 0.0194723
inclination: 66.1165°
perigee height: 831 km
apogee height: 1117 km
right ascension of ascending node: 253.8366°
argument of perigee: 51.1886°
revolutions per day: 13.77085718
mean anomaly at epoch: 116.2322°
orbit number at epoch: 17556

The dashed part of the orbit path shows where the satellite is in the earth's shadow,  

DLR